Regional Weather Roundup
Issued by NWS Cleveland, OH

Home | Current Version | Previous Version | Text Only | Print | Product List | Glossary Off
Versions: 1 2 3 4 5 6 7 8 9 10 11 12 13 14 15 16 17 18 19 20 21 22 23 24 25 26 27 28 29 30 31 32 33 34 35 36 37 38 39 40 41 42 43 44 45 46 47 48 49 50

000
ASUS41 KCLE 201310
RWRCLE
OHIO REGIONAL WEATHER ROUNDUP
NATIONAL WEATHER SERVICE WILMINGTON, OH
900 AM EDT THU JUL 20 2017

NOTE: "FAIR" INDICATES FEW OR NO CLOUDS BELOW 12,000 FEET WITH NO
SIGNIFICANT WEATHER AND/OR OBSTRUCTIONS TO VISIBILITY.

OHZ001>008-015>018-024>027-034-035-043-044-201400-
   NORTHWEST OHIO

CITY           SKY/WX    TMP DP  RH WIND       PRES   REMARKS
DEFIANCE       FAIR      76  67  73 SW9       30.05R
FINDLAY        FAIR      78  71  79 SW10      30.05S
TOLEDO EXPRESS FAIR      77  70  79 W14       30.02R
TOLEDO EXEC    FAIR      79  74  84 W13       30.03S
LIMA           PTSUNNY   76  73  91 W13       30.08S
$$

OHZ009>014-019>023-028>033-038-089-201400-
   NORTHEAST OHIO

CITY           SKY/WX    TMP DP  RH WIND       PRES   REMARKS
CLE-HOPKINS    PTSUNNY   80  71  74 SW9       30.04F
CLE-LAKEFRONT  FAIR      82  70  66 SW10      30.01F
CUY CO. ARPT   PTSUNNY   82  68  61 SW9       30.04R
LORAIN-ELYRIA  FAIR      78  68  71 SW7       30.04F
ASHTABULA      FAIR      76  70  82 SW9       30.05R
AKRON-CANTON   PTSUNNY   78  68  71 SW6       30.09R
WOOSTER        FAIR      76  71  85 W7        30.09R
MANSFIELD      FAIR      79  72  79 SW9       30.08F
YOUNGSTOWN     PTSUNNY   78  69  73 SW8       30.07R
$$

OHZ042-051>053-060>062-070>072-077>081-201400-
  SOUTHWEST OHIO

CITY           SKY/WX    TMP DP  RH WIND       PRES   REMARKS
CINC-COVINGTON CLOUDY    77  73  87 SW5       30.13R
CINC-LUNKEN    FAIR      75  72  90 CALM      30.12R
HAMILTON       FAIR      77  73  87 CALM      30.13R
DAYTON         PTSUNNY   76  72  87 SW7       30.12S
WRIGHT-PAT AFB PTSUNNY   77  75  93 SW5       30.12R
DAYTON GENERAL FAIR      77  71  82 SW5       30.12R
WILMINGTON     FAIR      77  73  87 SW3       30.13R
$$

OHZ036-037-039>041-045>050-054>059-063>069-073>076-082>088-201400-
  CENTRAL AND SOUTHEAST OHIO

CITY           SKY/WX    TMP DP  RH WIND       PRES   REMARKS
COLUMBUS       PTSUNNY   76  71  85 S5        30.09S
OSU AIRPORT    FAIR      77  73  87 SW6       30.10S
BOLTON FIELD   MOSUNNY   75  72  88 SW3       30.12R
RICKENBACK AFB FAIR      73  71  93 S5        30.10S
NEWARK         FAIR      76  70  82 S5        30.09F
MARION         FAIR      79  71  76 SW8       30.09S
LANCASTER      FAIR      74  72  93 S3        30.10F
ZANESVILLE     FAIR      75  68  78 SW6       30.10S
NEW PHILLY     FAIR      74  71  91 CALM      30.10R FOG
$$




USA.gov is the U.S. government's official web portal to all federal, state and local government web resources and services.